Lapse_Rate
7.4 7.6 6.2 6.9 6.8 8.5 8.5 6.1 4.8 4.5 5.2 5.4 5.2 5.5 4.2 5.2 5.7 5.0 6.3 6.9 9.1 9.6
6.9 7.6 6.5 6.0 6.1 8.1 9.1 9.2 6.0 4.4 5.0 5.0 5.0 4.9 4.4 5.0 5.5 5.1 4.5 6.9 8.1 8.7
6.6 7.5 7.6 6.3 6.8 7.1 8.0 9.0 7.9 5.3 4.2 4.6 4.6 4.2 4.4 4.8 5.9 4.9 4.7 7.2 8.4 8.0
6.5 7.8 7.4 6.9 7.9 7.4 8.0 8.7 9.3 7.2 4.8 5.9 5.0 3.8 4.7 4.7 6.1 4.8 6.5 7.8 7.9 7.8
7.4 7.3 7.6 7.0 7.9 8.4 7.6 8.0 8.4 8.2 6.2 6.1 5.7 5.2 3.8 4.2 6.3 5.8 6.3 6.8 7.5 7.9
8.1 7.4 7.2 7.5 7.6 8.0 8.0 8.9 8.5 8.2 7.5 6.1 5.6 6.5 4.6 4.1 5.5 5.3 5.5 6.3 6.9 7.4
7.7 7.7 7.4 7.9 8.2 8.3 8.6 8.7 8.9 8.4 6.9 6.4 6.1 6.5 6.5 5.6 5.9 6.8 6.0 6.6 7.1 7.1
9.1 7.9 7.6 7.7 8.3 8.6 7.9 8.4 8.6 7.4 6.9 6.8 6.6 6.9 6.8 6.5 6.8 7.5 7.4 7.4 7.4 6.6
9.4 8.7 7.5 6.6 7.5 7.9 7.9 7.7 7.5 8.3 8.2 6.7 6.9 3.8 1.6 5.0 7.0 7.8 7.9 7.0 7.0 6.7
9.1 9.0 7.8 6.5 7.0 7.5 7.1 7.8 8.0 8.5 8.7 7.5 6.3 1.4 0.6 0.1 7.1 7.4 6.9 6.7 7.3 6.0
9.2 8.6 8.0 6.9 5.9 5.9 6.4 7.2 8.1 8.5 7.7 8.0 6.7 0.7 -0.8 -0.9 5.9 7.2 7.6 7.0 6.2 5.7
7.2 8.4 8.3 6.0 5.4 6.0 6.4 5.7 7.3 8.4 6.9 7.0 6.4 -0.3 -1.2 -0.3 4.9 6.6 7.9 7.7 6.9 7.4
2.0 4.7 7.8 6.0 5.0 5.6 5.9 6.0 6.6 6.4 5.5 3.7 5.0 1.4 -1.0 0.1 5.3 5.6 8.2 8.4 7.9 1.4
2.3 2.9 4.2 5.2 5.3 4.8 5.4 5.4 5.6 5.7 5.0 5.2 4.6 4.4 -2.1 -2.1 5.0 5.7 8.1 8.7 8.1 8.1
Wind_Speed
20 14 14 16 12 12 12 14 18 19 22 23 22 20 20 14 12 13 11 11 10 9
18 18 16 16 15 11 13 12 18 20 16 21 21 22 20 11 14 14 12 13 11 10
18 19 16 13 14 17 14 14 17 18 17 17 19 21 17 13 14 15 12 12 14 12
17 18 16 14 15 16 16 16 16 18 17 17 18 17 16 16 16 17 17 16 15 15
20 18 18 18 16 16 15 14 16 16 17 16 17 18 18 18 16 18 18 18 17 16
21 20 18 20 20 18 15 16 16 17 18 17 17 18 19 19 19 19 20 20 18 17
22 20 18 18 20 20 19 18 18 16 17 18 17 19 18 19 19 18 19 19 19 18
17 18 18 20 19 19 19 17 18 17 17 18 18 15 19 19 19 19 19 18 18 18
17 17 18 18 19 19 18 18 17 17 17 18 14 18 20 21 18 20 20 18 19 17
17 16 16 15 16 19 18 17 18 17 17 19 18 18 21 21 18 18 19 19 18 17
16 16 17 15 13 12 12 15 16 16 17 18 15 17 20 21 20 18 20 20 19 18
10 16 17 14 13 11 10 11 13 16 17 18 17 18 22 21 20 20 20 19 19 19
10 9 13 13 12 11 12 13 12 16 17 17 18 17 22 23 16 20 16 18 19 17
8 8 8 10 11 11 11 11 15 15 15 17 16 18 21 26 19 15 16 14 13 13
Wind_Direction
198 204 206 217 214 216 197 183 192 194 197 197 196 195 192 194 199 205 210 214 223 212
204 207 207 213 223 227 215 189 187 192 201 199 195 195 194 197 196 200 204 209 216 224
205 213 215 208 224 226 234 218 183 190 198 200 197 194 195 201 199 199 203 211 211 212
214 217 208 214 216 222 221 229 210 193 194 201 197 193 195 202 199 201 207 205 204 208
212 218 213 211 225 215 219 225 217 204 196 203 202 198 196 200 201 201 206 204 203 205
216 216 217 216 218 223 219 217 218 206 203 202 207 205 202 201 206 201 205 207 203 203
213 217 215 219 217 217 218 219 222 210 208 204 207 208 206 206 209 207 207 209 205 202
219 212 219 222 222 217 215 215 219 214 211 210 208 210 204 206 212 211 209 206 209 205
226 214 216 220 223 217 213 212 214 218 213 212 212 204 205 204 208 212 209 207 209 207
227 222 214 214 226 221 215 217 219 221 222 217 213 208 204 206 212 210 208 208 205 207
222 220 217 214 215 224 212 215 215 222 219 225 216 203 204 201 211 213 212 209 206 204
273 208 215 209 208 215 216 219 220 227 224 225 227 204 200 195 208 219 215 208 207 211
320 308 216 210 206 212 217 216 217 229 231 228 231 216 207 197 207 214 218 208 209 211
322 288 277 208 211 214 221 221 229 228 228 233 234 233 201 200 207 208 223 208 205 206